Find Starlink 11444

NORAD ID: 62409 Int'l Des: 2024-249 Owner: SPXS Country: US Constellation: starlink operational
又名: STARLINK-11444 [DTC] celestrak
LEOCIRCULAR

当前视图

正在加载3D地球...

About Starlink 11444

Starlink 11444 (NORAD 62409) is a starlink constellation satellite (v2 mini d2c) launched Dec 23, 2024 by SPXS of US. It operates in LEO, CIRCULAR orbit with a mass of 960.00 kg.

即将过境

Passes for default location (London). Set your location on the main map for personalized predictions.

高度历史

Loading altitude history...

两行轨道根数

1 62409U 24249A 26262.78697153 .00186851 00000-0 14233-2 0 9990
2 62409 42.9998 78.0153 0001939 280.1762 79.8887 15.70904894100001
Epoch: Sep 19, 2026 • Age: 26 hours

当前状态

高度 355.4 km
远地点 / 近地点 N/A
速度 7.70 km/s
星下点 24.85°N, 146.51°E
发射日期 Dec 23, 2024
运行时间 1.7 years
类型 internet

技术详情

分类 Payload
质量 960.00 kg
干质量 910.00 kg
长度 0.30 m
跨度 29.00 m
形状 ? Box + pan
制造商 SPXS
平台类型 Starlink V2MD
阶段状态 In Orbit
所有者/国家 SPXS/US

Most Searched